When you browse on this site, cookies collect data to enhance your experience and personalize the content and advertising you see.
Visit our Privacy Policy to learn more. By continuing to use the site, you agree to this use of cookies and data.
  • In United Kingdom
  • List of Countries
  • For 7 days
  • Water Temperature
  • Satellite Maps
  • Weather Map
  • Weather Widgets
  • user-avatar
    Login

    Hourly Weather Ibigs

    Today, 25 June, Tuesday

    Time Temperature Precipitation Wind Pressure Humidity
    00:00 +20°C° 0.1 mm 1 mps 649 mmHg 88%
    01:00 +20°C° 0.1 mm 1 mps 649 mmHg 89%
    02:00 +20°C° 0.1 mm 1 mps 648 mmHg 89%
    03:00 +20°C° 0.1 mm 1 mps 648 mmHg 90%
    04:00 +18°C° 0.1 mm 0 mps 648 mmHg 90%
    05:00 +18°C° 0 mm 0 mps 648 mmHg 90%
    06:00 +18°C° 0 mm 0 mps 649 mmHg 89%
    07:00 +19°C° 0 mm 0 mps 649 mmHg 89%
    08:00 +22°C° 0.1 mm 1 mps 649 mmHg 84%
    09:00 +23°C° 0.1 mm 1 mps 650 mmHg 79%
    10:00 +25°C° 0.1 mm 2 mps 650 mmHg 75%
    11:00 +26°C° 0.2 mm 2 mps 650 mmHg 71%
    12:00 +27°C° 0.2 mm 2 mps 649 mmHg 66%
    13:00 +28°C° 0.2 mm 2 mps 649 mmHg 62%
    14:00 +27°C° 0.3 mm 2 mps 649 mmHg 65%
    15:00 +27°C° 0.3 mm 1 mps 648 mmHg 68%
    16:00 +27°C° 0.3 mm 1 mps 647 mmHg 72%
    17:00 +25°C° 0.5 mm 1 mps 647 mmHg 76%
    18:00 +24°C° 0.5 mm 1 mps 647 mmHg 81%
    19:00 +22°C° 0.5 mm 1 mps 647 mmHg 85%
    20:00 +22°C° 0.3 mm 1 mps 648 mmHg 85%
    21:00 +22°C° 0.3 mm 1 mps 648 mmHg 85%
    22:00 +21°C° 0.3 mm 1 mps 649 mmHg 86%
    23:00 +21°C° 0.6 mm 1 mps 649 mmHg 87%

    Tomorrow, 26 June, Wednesday

    Time Temperature Precipitation Wind Pressure Humidity
    00:00 +21°C° 0.6 mm 1 mps 648 mmHg 88%
    01:00 +20°C° 0.6 mm 1 mps 648 mmHg 90%
    02:00 +20°C° 0.4 mm 1 mps 648 mmHg 91%
    03:00 +20°C° 0.4 mm 1 mps 648 mmHg 92%
    04:00 +20°C° 0.4 mm 1 mps 647 mmHg 93%
    05:00 +20°C° 0.1 mm 1 mps 648 mmHg 92%
    06:00 +18°C° 0.1 mm 0 mps 648 mmHg 91%
    07:00 +19°C° 0.1 mm 0 mps 648 mmHg 90%
    08:00 +22°C° 0.1 mm 1 mps 649 mmHg 85%
    09:00 +24°C° 0.1 mm 1 mps 649 mmHg 80%
    10:00 +25°C° 0.1 mm 2 mps 649 mmHg 74%
    11:00 +26°C° 0.3 mm 2 mps 649 mmHg 72%
    12:00 +27°C° 0.3 mm 2 mps 648 mmHg 71%
    13:00 +27°C° 0.3 mm 2 mps 648 mmHg 69%
    14:00 +27°C° 0.4 mm 2 mps 647 mmHg 71%
    15:00 +27°C° 0.4 mm 2 mps 647 mmHg 73%
    16:00 +27°C° 0.4 mm 1 mps 646 mmHg 75%
    17:00 +25°C° 0.6 mm 1 mps 646 mmHg 79%
    18:00 +24°C° 0.6 mm 1 mps 646 mmHg 83%
    19:00 +22°C° 0.6 mm 1 mps 646 mmHg 87%
    20:00 +22°C° 1 mm 1 mps 647 mmHg 88%
    21:00 +21°C° 1 mm 1 mps 647 mmHg 88%
    22:00 +21°C° 1 mm 1 mps 648 mmHg 89%
    23:00 +21°C° 1.1 mm 1 mps 648 mmHg 89%

    Day after tomorrow, 27 June, Thursday

    Time Temperature Precipitation Wind Pressure Humidity
    00:00 +21°C° 1.1 mm 1 mps 647 mmHg 89%
    01:00 +20°C° 1.1 mm 1 mps 647 mmHg 90%
    02:00 +20°C° 1 mm 1 mps 647 mmHg 91%
    03:00 +20°C° 1 mm 1 mps 647 mmHg 92%
    04:00 +18°C° 1 mm 0 mps 647 mmHg 93%
    05:00 +19°C° 0.4 mm 0 mps 647 mmHg 92%
    06:00 +19°C° 0.4 mm 0 mps 648 mmHg 92%
    07:00 +19°C° 0.4 mm 0 mps 648 mmHg 92%
    08:00 +22°C° 0.5 mm 1 mps 648 mmHg 90%
    09:00 +23°C° 0.5 mm 1 mps 648 mmHg 88%
    10:00 +24°C° 0.5 mm 2 mps 649 mmHg 85%
    11:00 +25°C° 0.8 mm 2 mps 648 mmHg 82%
    12:00 +25°C° 0.8 mm 2 mps 648 mmHg 79%
    13:00 +26°C° 0.8 mm 2 mps 647 mmHg 76%
    14:00 +26°C° 0.7 mm 2 mps 647 mmHg 75%
    15:00 +26°C° 0.7 mm 1 mps 647 mmHg 73%
    16:00 +27°C° 0.7 mm 1 mps 646 mmHg 72%
    17:00 +25°C° 0.4 mm 1 mps 646 mmHg 76%
    18:00 +24°C° 0.4 mm 1 mps 646 mmHg 80%
    19:00 +22°C° 0.4 mm 1 mps 647 mmHg 84%
    20:00 +22°C° 0.1 mm 1 mps 647 mmHg 84%
    21:00 +21°C° 0.1 mm 1 mps 648 mmHg 83%
    22:00 +21°C° 0.1 mm 1 mps 648 mmHg 83%
    23:00 +20°C° 0.1 mm 1 mps 648 mmHg 83%

    28 June, Friday

    Time Temperature Precipitation Wind Pressure Humidity
    00:00 +20°C° 0.1 mm 1 mps 648 mmHg 84%
    01:00 +20°C° 0.1 mm 1 mps 647 mmHg 84%
    02:00 +19°C° 0.1 mm 1 mps 647 mmHg 85%
    03:00 +19°C° 0.1 mm 1 mps 647 mmHg 85%
    04:00 +19°C° 0.1 mm 1 mps 647 mmHg 86%
    05:00 +20°C° 0 mm 1 mps 647 mmHg 85%
    06:00 +20°C° 0 mm 1 mps 648 mmHg 85%
    07:00 +21°C° 0 mm 1 mps 648 mmHg 84%
    08:00 +22°C° 0 mm 1 mps 649 mmHg 78%
    09:00 +24°C° 0 mm 2 mps 649 mmHg 72%
    10:00 +25°C° 0 mm 2 mps 650 mmHg 65%
    11:00 +26°C° 0 mm 2 mps 649 mmHg 63%
    12:00 +27°C° 0 mm 3 mps 649 mmHg 60%
    13:00 +28°C° 0 mm 3 mps 648 mmHg 58%
    14:00 +28°C° 0.2 mm 3 mps 648 mmHg 60%
    15:00 +27°C° 0.2 mm 2 mps 647 mmHg 63%
    16:00 +27°C° 0.2 mm 2 mps 647 mmHg 65%
    17:00 +25°C° 0.4 mm 2 mps 647 mmHg 71%
    18:00 +23°C° 0.4 mm 2 mps 647 mmHg 76%
    19:00 +22°C° 0.4 mm 1 mps 647 mmHg 82%
    20:00 +21°C° 0 mm 1 mps 647 mmHg 82%
    21:00 +20°C° 0 mm 2 mps 648 mmHg 81%
    22:00 +20°C° 0 mm 2 mps 648 mmHg 81%
    23:00 +19°C° 0.1 mm 2 mps 648 mmHg 81%

    29 June, Saturday

    Time Temperature Precipitation Wind Pressure Humidity
    00:00 +19°C° 0.1 mm 2 mps 648 mmHg 81%
    01:00 +19°C° 0.1 mm 2 mps 647 mmHg 82%
    02:00 +20°C° 0.1 mm 1 mps 647 mmHg 82%
    03:00 +20°C° 0.1 mm 1 mps 647 mmHg 83%
    04:00 +19°C° 0.1 mm 1 mps 647 mmHg 83%
    05:00 +20°C° 0 mm 1 mps 647 mmHg 82%
    06:00 +21°C° 0 mm 1 mps 648 mmHg 82%
    07:00 +21°C° 0 mm 1 mps 648 mmHg 81%
    08:00 +23°C° 0 mm 1 mps 649 mmHg 74%
    09:00 +25°C° 0 mm 2 mps 649 mmHg 67%
    10:00 +26°C° 0 mm 2 mps 650 mmHg 60%
    11:00 +27°C° 0.1 mm 2 mps 649 mmHg 59%
    12:00 +28°C° 0.1 mm 2 mps 649 mmHg 58%
    13:00 +28°C° 0.1 mm 3 mps 648 mmHg 57%
    14:00 +28°C° 0.5 mm 2 mps 648 mmHg 61%
    15:00 +27°C° 0.5 mm 2 mps 647 mmHg 66%
    16:00 +27°C° 0.5 mm 1 mps 647 mmHg 70%
    17:00 +25°C° 0.5 mm 1 mps 647 mmHg 74%
    18:00 +23°C° 0.5 mm 1 mps 647 mmHg 78%
    19:00 +22°C° 0.5 mm 1 mps 647 mmHg 82%
    20:00 +22°C° 0.2 mm 1 mps 648 mmHg 83%
    21:00 +21°C° 0.2 mm 1 mps 648 mmHg 83%
    22:00 +21°C° 0.2 mm 1 mps 648 mmHg 84%
    23:00 +21°C° 0.2 mm 1 mps 648 mmHg 85%

    30 June, Sunday

    Time Temperature Precipitation Wind Pressure Humidity
    00:00 +20°C° 0.2 mm 1 mps 648 mmHg 86%
    01:00 +20°C° 0.2 mm 1 mps 647 mmHg 87%
    02:00 +20°C° 0.2 mm 1 mps 647 mmHg 86%
    03:00 +20°C° 0.2 mm 1 mps 647 mmHg 85%
    04:00 +20°C° 0.2 mm 1 mps 647 mmHg 85%
    05:00 +20°C° 0 mm 1 mps 647 mmHg 84%
    06:00 +21°C° 0 mm 1 mps 648 mmHg 83%
    07:00 +21°C° 0 mm 1 mps 648 mmHg 83%
    08:00 +22°C° 0.2 mm 1 mps 648 mmHg 80%
    09:00 +24°C° 0.2 mm 1 mps 649 mmHg 77%
    10:00 +25°C° 0.2 mm 2 mps 649 mmHg 74%
    11:00 +26°C° 0.5 mm 2 mps 649 mmHg 72%
    12:00 +26°C° 0.5 mm 2 mps 648 mmHg 70%
    13:00 +27°C° 0.5 mm 2 mps 648 mmHg 68%
    14:00 +26°C° 0.7 mm 2 mps 647 mmHg 70%
    15:00 +26°C° 0.7 mm 2 mps 647 mmHg 72%
    16:00 +26°C° 0.7 mm 1 mps 647 mmHg 74%
    17:00 +25°C° 0.6 mm 1 mps 647 mmHg 77%
    18:00 +23°C° 0.6 mm 1 mps 647 mmHg 80%
    19:00 +22°C° 0.6 mm 1 mps 647 mmHg 84%
    20:00 +22°C° 0.4 mm 1 mps 648 mmHg 85%
    21:00 +21°C° 0.4 mm 1 mps 648 mmHg 86%
    22:00 +21°C° 0.4 mm 1 mps 648 mmHg 87%
    23:00 +21°C° 0.3 mm 1 mps 648 mmHg 86%
    Show more